Menomonie, WI

1:55 PM CST on December 05, 2019 (GMT -0600)
Menomonie

Weather History for KLUM - October, 2019

Change the Weather History Date:

Sunday, October 13, 2019

  Actual Average (WUND) Record (WUND)
Temperature  
Mean Temperature 34 °F -  
Max Temperature 39 °F - - (-1)
Min Temperature 31 °F - - (-1)
Degree Days  
Heating Degree Days 30    
Moisture  
Dew Point 31 °F    
Average Humidity 90    
Maximum Humidity 100    
Minimum Humidity 72    
Precipitation  
Precipitation 0.01 in - - ()
Sea Level Pressure  
Sea Level Pressure 29.75 in    
Wind  
Wind Speed 11 mph (WSW)    
Max Wind Speed 15 mph    
Max Gust Speed 21 mph    
Visibility 9 miles    
Events Rain , Snow    
Averages and records for this station are not official NWS values.
T = Trace of Precipitation, MM = Missing Value Source: NWS Daily Summary

Daily Weather History Graph

Daily Weather History Graph

Search for Another Location

Airport or City:

Astronomy

Oct. 13, 2019 Rise Set
Actual Time 7:20 AM CDT 6:26 PM CDT
Civil Twilight 6:50 AM CDT 6:55 PM CDT
Nautical Twilight 6:16 AM CDT 7:29 PM CDT
Astronomical Twilight 5:42 AM CDT 8:03 PM CDT
Moon 6:51 PM CDT (10/13) 6:51 AM CDT (10/13)
Length of Visible Light 12h 05m
Length of Day
11h 06m
Full, 100% of the Moon is Illuminated
Oct 13
Full
Oct 13
Full
Oct 21
Last Quarter
Oct 27
New
Nov 4
First Quarter

Hourly Weather History & Observations

Time (CDT) Temp. Windchill Dew Point Humidity Pressure Visibility Wind Dir Wind Speed Gust Speed Precip Events Conditions
12:15 AM 33.1 °F 24.4 °F 29.7 °F 87% 29.64 in 10.0 mi SW 11.5 mph 18.4 mph N/A   Overcast
12:55 AM 32.0 °F 24.2 °F 31.1 °F 96% 29.63 in 3.0 mi SW 9.2 mph - 0.01 in Rain Light Rain
1:15 AM 32.0 °F 23.0 °F 31.6 °F 99% 29.63 in 5.0 mi SW 11.5 mph - N/A Rain Light Rain
1:35 AM 32.0 °F 22.5 °F 31.6 °F 99% 29.64 in 3.0 mi SSW 12.7 mph 19.6 mph N/A   Light Drizzle
1:55 AM 32.0 °F 21.6 °F 31.8 °F 99% 29.64 in 4.0 mi SW 15.0 mph - N/A   Overcast
2:15 AM 32.0 °F 21.6 °F 31.8 °F 99% 29.65 in 10.0 mi SW 15.0 mph - N/A   Overcast
2:35 AM 32.0 °F 23.0 °F 32.0 °F 100% 29.65 in 10.0 mi SW 11.5 mph 17.3 mph N/A   Overcast
2:55 AM 32.0 °F 22.1 °F 31.5 °F 98% 29.66 in 10.0 mi SW 13.8 mph 19.6 mph N/A   Overcast
3:15 AM 32.0 °F 22.5 °F 31.3 °F 97% 29.66 in 10.0 mi SW 12.7 mph 17.3 mph N/A   Overcast
3:35 AM 32.0 °F 21.6 °F 31.1 °F 96% 29.66 in 10.0 mi SW 15.0 mph 19.6 mph N/A   Overcast
3:55 AM 32.0 °F 23.0 °F 30.9 °F 96% 29.66 in 10.0 mi SW 11.5 mph - N/A   Overcast
4:15 AM 32.0 °F 22.5 °F 31.1 °F 96% 29.66 in 10.0 mi SW 12.7 mph 17.3 mph N/A   Overcast
4:35 AM 32.0 °F 23.0 °F 31.1 °F 96% 29.66 in 10.0 mi SW 11.5 mph 18.4 mph N/A   Overcast
4:55 AM 32.0 °F 22.5 °F 31.1 °F 96% 29.66 in 10.0 mi SW 12.7 mph 18.4 mph N/A   Overcast
5:15 AM 32.0 °F 22.1 °F 31.1 °F 96% 29.66 in 10.0 mi WSW 13.8 mph 17.3 mph N/A   Overcast
5:35 AM 32.0 °F 23.0 °F 31.1 °F 96% 29.67 in 7.0 mi SW 11.5 mph - N/A   Overcast
6:15 AM 32.0 °F 23.0 °F 31.5 °F 98% 29.67 in 10.0 mi SW 11.5 mph - N/A   Overcast
6:35 AM 32.0 °F 23.6 °F 31.5 °F 98% 29.67 in 10.0 mi SW 10.4 mph - N/A Rain Light Rain
6:55 AM 31.6 °F 24.4 °F 31.1 °F 98% 29.68 in 5.0 mi SW 8.1 mph - N/A Snow Light Snow
7:15 AM 31.6 °F 23.7 °F 31.5 °F 99% 29.68 in 10.0 mi SW 9.2 mph - N/A   Overcast
7:35 AM 32.0 °F 24.2 °F 31.6 °F 99% 29.68 in 10.0 mi SW 9.2 mph - N/A   Overcast
7:55 AM 32.0 °F 24.2 °F 31.8 °F 99% 29.68 in 10.0 mi SW 9.2 mph - N/A Rain Light Rain
8:15 AM 32.2 °F 23.8 °F 32.0 °F 99% 29.68 in 10.0 mi SW 10.4 mph - N/A Rain Light Rain
8:35 AM 32.2 °F 23.2 °F 32.0 °F 99% 29.69 in 10.0 mi WSW 11.5 mph - N/A   Overcast
8:55 AM 33.3 °F 24.6 °F 31.8 °F 94% 29.69 in 10.0 mi West 11.5 mph 17.3 mph N/A   Mostly Cloudy
9:15 AM 33.8 °F 25.3 °F 32.0 °F 93% 29.70 in 10.0 mi WSW 11.5 mph - N/A   Scattered Clouds
9:35 AM 34.2 °F 26.2 °F 32.0 °F 92% 29.70 in 10.0 mi WSW 10.4 mph - N/A   Mostly Cloudy
9:55 AM 34.2 °F 25.7 °F 32.0 °F 92% 29.71 in 10.0 mi WSW 11.5 mph 16.1 mph N/A   Overcast
10:15 AM 34.2 °F 26.8 °F 32.0 °F 92% 29.72 in 10.0 mi WSW 9.2 mph 18.4 mph N/A   Overcast
10:35 AM 34.7 °F 26.4 °F 32.0 °F 90% 29.72 in 10.0 mi WSW 11.5 mph - N/A   Overcast
10:55 AM 34.9 °F 26.6 °F 32.0 °F 89% 29.72 in 10.0 mi WSW 11.5 mph - N/A   Overcast
11:15 AM 35.6 °F 28.0 °F 31.8 °F 86% 29.73 in 10.0 mi WSW 10.4 mph 17.3 mph N/A   Overcast
11:35 AM 36.0 °F 27.5 °F 32.0 °F 86% 29.73 in 10.0 mi WSW 12.7 mph - N/A   Overcast
11:55 AM 36.5 °F 28.2 °F 31.5 °F 82% 29.73 in 10.0 mi WSW 12.7 mph 17.3 mph N/A   Overcast
12:15 PM 36.1 °F 27.3 °F 32.2 °F 86% 29.73 in 10.0 mi WSW 13.8 mph 17.3 mph N/A Rain Light Rain
12:35 PM 36.9 °F 29.1 °F 32.0 °F 83% 29.74 in 7.0 mi West 11.5 mph - N/A Rain Light Rain
12:55 PM 38.7 °F 30.9 °F 32.7 °F 79% 29.74 in 10.0 mi WSW 12.7 mph - N/A   Scattered Clouds
1:15 PM 38.8 °F 31.6 °F 31.6 °F 75% 29.74 in 10.0 mi West 11.5 mph 20.7 mph N/A   Mostly Cloudy
1:35 PM 36.7 °F 29.9 °F 32.0 °F 83% 29.74 in 7.0 mi West 9.2 mph - N/A   Mostly Cloudy
1:55 PM 38.8 °F 30.4 °F 31.6 °F 75% 29.74 in 10.0 mi West 15.0 mph 19.6 mph N/A   Mostly Cloudy
2:15 PM 38.8 °F 31.2 °F 31.5 °F 75% 29.75 in 10.0 mi WSW 12.7 mph 19.6 mph N/A   Mostly Cloudy
2:35 PM 38.1 °F 30.2 °F 31.1 °F 76% 29.76 in 10.0 mi WSW 12.7 mph - N/A   Mostly Cloudy
2:55 PM 37.8 °F 30.7 °F 30.2 °F 74% 29.76 in 10.0 mi West 10.4 mph 19.6 mph N/A   Overcast
3:15 PM 37.9 °F 30.0 °F 30.9 °F 76% 29.77 in 10.0 mi WSW 12.7 mph 16.1 mph N/A   Overcast
3:35 PM 36.7 °F 29.9 °F 32.0 °F 83% 29.78 in 7.0 mi WNW 9.2 mph - N/A Rain Light Rain
3:55 PM 38.5 °F 30.7 °F 30.7 °F 74% 29.78 in 10.0 mi WSW 12.7 mph 20.7 mph N/A   Mostly Cloudy
4:15 PM 38.3 °F 31.9 °F 30.0 °F 72% 29.78 in 10.0 mi West 9.2 mph - N/A   Mostly Cloudy
4:35 PM 38.7 °F 31.4 °F 30.7 °F 73% 29.79 in 10.0 mi WSW 11.5 mph - N/A   Scattered Clouds
4:55 PM 37.4 °F 29.8 °F 31.1 °F 78% 29.80 in 10.0 mi WSW 11.5 mph - N/A   Clear
5:15 PM 35.8 °F 27.8 °F 31.5 °F 84% 29.81 in 10.0 mi WSW 11.5 mph 18.4 mph N/A   Clear
5:35 PM 36.3 °F 28.9 °F 32.0 °F 84% 29.81 in 10.0 mi WSW 10.4 mph - N/A   Clear
5:55 PM 35.6 °F 29.2 °F 31.6 °F 85% 29.82 in 10.0 mi SW 8.1 mph - N/A   Clear
6:15 PM 34.5 °F 28.6 °F 31.1 °F 87% 29.83 in 10.0 mi WSW 6.9 mph - N/A   Clear
6:35 PM 33.3 °F 27.9 °F 31.1 °F 92% 29.83 in 10.0 mi WSW 5.8 mph - N/A   Clear
6:55 PM 32.5 °F 27.1 °F 31.1 °F 94% 29.84 in 10.0 mi WSW 5.8 mph - N/A   Clear
7:15 PM 32.0 °F 26.4 °F 30.7 °F 95% 29.85 in 10.0 mi SW 5.8 mph - N/A   Clear
7:35 PM 32.5 °F 27.1 °F 31.3 °F 95% 29.86 in 10.0 mi WSW 5.8 mph - N/A   Clear
7:55 PM 32.7 °F 25.0 °F 31.1 °F 94% 29.86 in 10.0 mi WSW 9.2 mph - N/A   Clear
8:15 PM 33.3 °F 26.4 °F 31.1 °F 92% 29.87 in 10.0 mi WSW 8.1 mph - N/A   Clear
8:35 PM 32.2 °F 25.8 °F 30.6 °F 94% 29.88 in 10.0 mi WSW 6.9 mph - N/A   Clear
8:55 PM 32.0 °F 28.7 °F 30.9 °F 96% 29.88 in 10.0 mi WSW 3.5 mph - N/A   Clear
9:15 PM 31.3 °F 26.6 °F 30.0 °F 95% 29.88 in 10.0 mi SW 4.6 mph - N/A   Clear
9:35 PM 31.1 °F 25.4 °F 30.2 °F 96% 29.89 in 10.0 mi WSW 5.8 mph - N/A   Clear
9:55 PM 32.0 °F 26.4 °F 30.9 °F 96% 29.89 in 10.0 mi WSW 5.8 mph - N/A   Scattered Clouds
10:15 PM 32.5 °F 26.2 °F 30.9 °F 94% 29.90 in 10.0 mi WSW 6.9 mph - N/A   Mostly Cloudy
10:35 PM 32.0 °F 25.6 °F 30.6 °F 94% 29.90 in 10.0 mi WSW 6.9 mph - N/A   Mostly Cloudy
10:55 PM 32.0 °F 25.6 °F 31.1 °F 96% 29.90 in 10.0 mi WSW 6.9 mph - N/A   Mostly Cloudy
11:15 PM 32.7 °F 25.0 °F 31.1 °F 94% 29.90 in 10.0 mi SW 9.2 mph - N/A   Overcast
11:35 PM 33.3 °F 26.4 °F 30.6 °F 90% 29.91 in 10.0 mi WSW 8.1 mph - N/A   Overcast
11:55 PM 33.3 °F 24.6 °F 30.2 °F 89% 29.91 in 10.0 mi WSW 11.5 mph - N/A   Overcast